Regional Weather Roundup
Issued by NWS Midland/Odessa, TX

Skip options and go directly to product.
Home | Oldest Version | Next Version | Current Version | All | Text Only | Save Text | Print | Product List | Glossary On

Skip product version selection by date and time.   
479
ASUS44 KMAF 121901
RWRMAF
MIDLAND AREA WEATHER ROUNDUP
NATIONAL WEATHER SERVICE MIDLAND TX
100 PM CST FRI FEB 12 2016

...IN SOUTHWEST TEXAS AND SOUTHEAST NEW MEXICO...

CITY           SKY/WX    TMP DP  RH WIND       PRES   REMARKS
ALPINE         SUNNY     74  12   9 CALM      30.37F
ANDREWS        FAIR      71  25  17 SE6       30.30F
ARTESIA        SUNNY     61  27  27 NE10      30.32F
BIG SPRING     SUNNY     66  32  27 NE9       30.32F
CARLSBAD       SUNNY     64  25  22 N13       30.30F
DRYDEN           N/A     78  25  14 VRB7G18   30.23F
FORT STOCKTON  SUNNY     69  25  19 N6        30.29F
GUAD PASS      SUNNY     65  16  15 SW9       30.37F
HOBBS          SUNNY     66  23  19 VRB5      30.31F
MARFA          SUNNY     71   5   7 CALM      30.34F
MIDLAND AIRPK  SUNNY     70  30  22 SE7       30.31F
MIDLAND INTL   SUNNY     70  32  24 E9        30.28F
ODESSA         SUNNY     71  26  18 VRB6      30.28F
PECOS          SUNNY     65  28  24 N9        30.30F
PRESIDIO       FAIR      69  19  15 W5        30.28F
SEMINOLE       SUNNY     68  26  20 S5        30.32F
SNYDER           N/A     66  32  28 NE12G18   30.31F
WINK           SUNNY     70  27  20 NW3       30.26F
$$
...OTHER STATIONS IN TEXAS...

CITY           SKY/WX    TMP DP  RH WIND       PRES   REMARKS
ABILENE        SUNNY     67  38  34 N8        30.30F
AMARILLO       SUNNY     62  28  27 E16       30.35F
AUSTIN         SUNNY     77  42  28 N9        30.22F
BROWNSVILLE    SUNNY     78  57  48 S15       30.21F
CORPUS CHRISTI MOSUNNY   81  56  42 S10       30.20F
DALLAS FTW     SUNNY     65  36  34 N12       30.29F
DEL RIO        SUNNY     77  35  21 CALM      30.20F
EL PASO        SUNNY     67  13  12 SW5       30.31F
HOUSTON INT    MOSUNNY   73  58  59 W10       30.23F
LUBBOCK        MOSUNNY   67  27  22 E9        30.32F
SAN ANGELO     SUNNY     70  33  25 E9        30.27F
SAN ANTONIO    SUNNY     77  47  34 CALM      30.21F
WACO           SUNNY     72  38  29 NE17      30.26F
WICHITA FALLS  NOT AVBL
$$
...OTHER LOCATIONS IN NEW MEXICO...

CITY           SKY/WX    TMP DP  RH WIND       PRES   REMARKS
ALAMAGORDO     SUNNY     66  16  14 S5        30.31F
ALBUQUERQUE    SUNNY     59  18  20 N7        30.38F
CANNON AFB     SUNNY     63  25  23 E10G20    30.32F
CLOVIS         SUNNY     64  28  25 E15       30.34F
HOLLOMAN AFB   SUNNY     68  13  12 VRB6      30.29F
ROSWELL        SUNNY     65  23  20 N10G18    30.30F
RUIDOSO          N/A     64   5   9 NE5       30.40F
SANTA FE       SUNNY     57  17  21 N8        30.39F
TRUTH OR CONSE SUNNY     65  14  14 NE6       30.34F
TUCUMCARI      SUNNY     61  23  23 SE9       30.33F
$$

USA.gov is the U.S. government's official web portal to all federal, state and local government web resources and services.